Social login voor leden:

1. METAR EBOS

METAR EBOS 180720Z 22004KT 9999 -RA FEW005 BKN030 15/M07 Q1004 TEMPO BKN004

2. TAF EBOS

TAF EBOS 180720Z 22004KT 9999 -RA FEW005 BKN030 15/M07 Q1004 TEMPO BKN004

3. NOTAMS EBOS

Klik hier voor een overzicht van de notams.

Deze pagina promoten

Noordzee Vliegclub - Nieuwpoortsesteenweg 947 8400 Oostende - Tel 059 30 04 79 - Dit e-mailadres wordt beveiligd tegen spambots. JavaScript dient ingeschakeld te zijn om het te bekijken.

 - Copyright 2017